Regional Weather Roundup
Issued by NWS

Home | Current Version | Previous Version | Graphics & Text | Print | Product List | Glossary On
Versions: 1 2 3 4 5 6 7 8 9 10 11 12 13 14 15 16 17 18 19 20 21 22 23 24 25 26 27 28 29 30 31 32 33 34 35 36 37 38 39 40 41 42 43 44 45 46 47 48 49 50
000
ASUS43 KFSD 110510
RWRSD

WEATHER ROUNDUP FOR SOUTH DAKOTA
NATIONAL WEATHER SERVICE SIOUX FALLS SD
1100 PM CST SAT DEC 10 2016

NOTE: "FAIR" INDICATES FEW OR NO CLOUDS BELOW 12,000 FEET WITH NO
SIGNIFICANT WEATHER AND/OR OBSTRUCTIONS TO VISIBILITY.


SDZ001>005-009-010-012>017-110600-
NORTHWEST AND NORTH CENTRAL SOUTH DAKOTA

CITY           SKY/WX    TMP DP  RH WIND       PRES   REMARKS
BUFFALO          N/A      4  -2  76 S9        29.69F WCI -10
FAITH            N/A      2  -1  88 N9        29.83R WCI -13
MOBRIDGE       LGT SNOW   6  -1  73 E10       29.87F WCI  -9
$$

SDZ012>016-024>037-041>051-057-063-072>074-110600-
SOUTHWEST AND SOUTH CENTRAL SOUTH DAKOTA

CITY           SKY/WX    TMP DP  RH WIND       PRES   REMARKS
RAPID CTY ARPT CLOUDY     6   1  80 NE3       29.74F
PIERRE         LGT SNOW  10   6  84 NE18      29.82F FOG     WCI  -8
CUSTER         CLOUDY    31  20  63 N13G23    29.61R WCI  21
ELLSWORTH AFB  CLOUDY     5   1  85 N1        29.75
PHILIP         LGT SNOW   7   4  87 NW15      29.84R FOG     WCI -10
PINE RIDGE     CLOUDY     6   4  91 NW10      29.77R WCI  -9
SPEARFISH      CLOUDY     9   5  85 W10       29.73R WCI  -6
WINNER         CLOUDY    23  19  85 E16       29.72F WCI  10
$$

SDZ004>011-016>023-039-040-110600-
NORTHEAST SOUTH DAKOTA

CITY           SKY/WX    TMP DP  RH WIND       PRES   REMARKS
ABERDEEN       LGT SNOW   9   3  77 NE13      29.97F WCI  -7
WATERTOWN      SNOW       8   4  83 E14       29.93F VSB 1/2 WCI  -8
BROOKINGS      LGT SNOW  13   9  84 E16       29.92F FOG     WCI  -3
SISSETON         N/A      8   5  87 MISG      30.05F
$$

SDZ017-020-022-023-036>040-048>070-110600-
SOUTHEAST SOUTH DAKOTA

CITY           SKY/WX    TMP DP  RH WIND       PRES   REMARKS
SIOUX FALLS    LGT SNOW  21  19  92 E14       29.92F FOG     WCI   8
HURON          LGT SNOW  15  13  91 SE20      29.87F FOG     WCI  -2
CHAMBERLAIN    CLOUDY    23  21  92 SE15      29.79F WCI  10
MITCHELL       CLOUDY    22  19  89 SE18      29.87F WCI   7
YANKTON        CLOUDY    23  18  80 E12       29.86F WCI  12
$$

ABBREVIATIONS USED IN REMARKS
   TC - TEMPERATURE IN CELSIUS
  WCI - WIND CHILL INDEX
   HX - HEAT INDEX
  VSB - VISIBILITY




USA.gov is the U.S. government's official web portal to all federal, state and local government web resources and services.